Date String (YYYY-MM-DD hh:mm:ss) UTC,Instrument flags,Ambient pressure (hPa),Sample flow (lpm),Bypass flow (lpm),Sample temperature (°C),Ambient temperature (°C),ASC tube jacket temperature (°C),LED temperature (°C),Box temperature (°C),Sample RH (%),Span deviation,Mass concentration (μg/m³),Mass concentration (μg/m³),Mass concentration (μg/m³)
DateTimeUTC,F1_M11,P_M11,Q1_M11,Q2_M11,T1_M11,T2_M11,T3_M11,T4_M11,T5_M11,U1_M11,ZSPAN_M11,X0_M11,X2_M11,X1_M11
2022-04-21 07:00:00,,0824.3,4.99,0.00,28.9,28.0,00.0,37.9,30.6,09.7,0000.0,0022.67,0005.58,0002.30
2022-04-21 07:01:00,,0824.3,5.00,0.00,28.9,28.0,00.0,37.9,30.6,09.7,0000.0,0022.19,0005.57,0002.28
2022-04-21 07:02:00,,0824.3,5.01,0.00,28.9,28.0,00.0,37.9,30.6,09.7,0000.0,0022.91,0005.52,0002.28
2022-04-21 07:03:00,,0824.3,4.99,0.00,28.9,28.0,00.0,37.9,30.6,09.7,0000.0,0023.54,0005.49,0002.28
2022-04-21 07:04:00,,0824.4,5.00,0.00,28.9,28.0,00.0,37.9,30.6,09.7,0000.0,0024.68,0005.47,0002.26
2022-04-21 07:05:00,,0824.5,5.01,0.00,28.9,28.0,00.0,37.9,30.6,09.7,0000.0,0024.65,0005.51,0002.27
2022-04-21 07:06:00,,0824.4,5.00,0.00,28.8,28.0,00.0,37.9,30.6,09.7,0000.0,0024.58,0005.57,0002.27
2022-04-21 07:07:00,,0824.4,4.99,0.00,28.8,28.0,00.0,37.9,30.6,09.7,0000.0,0024.45,0005.58,0002.28
2022-04-21 07:08:00,,0824.4,5.00,0.00,28.8,28.0,00.0,37.9,30.5,09.7,0000.0,0025.02,0005.56,0002.26
2022-04-21 07:09:00,,0824.4,4.99,0.00,28.8,28.0,00.0,37.9,30.5,09.7,0000.0,0024.97,0005.56,0002.23
2022-04-21 07:10:00,,0824.4,5.00,0.00,28.8,28.0,00.0,37.9,30.6,09.7,0000.0,0023.15,0005.50,0002.23
2022-04-21 07:11:00,,0824.4,5.01,0.00,28.8,28.0,00.0,37.9,30.6,09.7,0000.0,0022.13,0005.45,0002.24
2022-04-21 07:12:00,,0824.4,5.00,0.00,28.8,28.0,00.0,37.8,30.5,09.7,0000.0,0022.25,0005.52,0002.28
2022-04-21 07:13:00,,0824.3,4.99,0.00,28.8,28.0,00.0,37.8,30.5,09.7,0000.0,0022.48,0005.60,0002.28
2022-04-21 07:14:00,,0824.3,4.99,0.00,28.8,28.0,00.0,37.8,30.5,09.7,0000.0,0023.40,0005.62,0002.26
2022-04-21 07:15:00,,0824.3,5.01,0.00,28.8,28.0,00.0,37.8,30.5,09.7,0000.0,0024.29,0005.66,0002.28
2022-04-21 07:16:00,,0824.4,5.00,0.00,28.8,27.9,00.0,37.8,30.5,09.7,0000.0,0023.92,0005.69,0002.27
2022-04-21 07:17:00,,0824.4,4.99,0.00,28.8,27.9,00.0,37.8,30.5,09.7,0000.0,0023.43,0005.66,0002.26
2022-04-21 07:18:00,,0824.4,5.01,0.00,28.8,27.9,00.0,37.8,30.5,09.7,0000.0,0023.33,0005.63,0002.26
2022-04-21 07:19:00,,0824.4,5.00,0.00,28.8,27.9,00.0,37.8,30.5,09.7,0000.0,0022.60,0005.54,0002.26
2022-04-21 07:20:00,,0824.3,5.00,0.00,28.8,27.9,00.0,37.8,30.5,09.7,0000.0,0022.36,0005.50,0002.24
2022-04-21 07:21:00,,0824.4,4.99,0.00,28.8,27.9,00.0,37.8,30.5,09.7,0000.0,0022.90,0005.50,0002.24
2022-04-21 07:22:00,,0824.3,5.00,0.00,28.7,27.9,00.0,37.8,30.4,09.7,0000.0,0022.84,0005.47,0002.21
2022-04-21 07:23:00,,0824.3,5.01,0.00,28.7,27.9,00.0,37.8,30.4,09.7,0000.0,0022.75,0005.43,0002.18
2022-04-21 07:24:00,,0824.4,5.02,0.00,28.7,27.9,00.0,37.8,30.4,09.7,0000.0,0022.12,0005.35,0002.15
2022-04-21 07:25:00,,0824.4,4.99,0.00,28.7,27.9,00.0,37.8,30.4,09.7,0000.0,0021.18,0005.30,0002.16
2022-04-21 07:26:00,,0824.5,4.99,0.00,28.7,27.9,00.0,37.8,30.4,09.7,0000.0,0019.78,0005.18,0002.14
2022-04-21 07:27:00,,0824.4,5.00,0.00,28.7,27.9,00.0,37.7,30.4,09.8,0000.0,0019.31,0005.10,0002.14
2022-04-21 07:28:00,,0824.4,5.00,0.00,28.7,27.9,00.0,37.7,30.4,09.8,0000.0,0020.38,0005.07,0002.14
2022-04-21 07:29:00,,0824.4,5.01,0.00,28.7,27.8,00.0,37.7,30.4,09.8,0000.0,0020.50,0005.02,0002.13
2022-04-21 07:30:00,,0824.4,5.01,0.00,28.7,27.8,00.0,37.7,30.4,09.8,0000.0,0021.72,0005.03,0002.12
2022-04-21 07:31:00,,0824.4,5.00,0.00,28.7,27.8,00.0,37.7,30.4,09.8,0000.0,0021.82,0005.10,0002.15
2022-04-21 07:32:00,,0824.4,4.99,0.00,28.7,27.8,00.0,37.7,30.4,09.8,0000.0,0021.86,0005.10,0002.17
2022-04-21 07:33:00,,0824.4,4.99,0.00,28.7,27.8,00.0,37.7,30.4,09.8,0000.0,0022.26,0005.17,0002.19
2022-04-21 07:34:00,,0824.3,5.00,0.00,28.6,27.8,00.0,37.7,30.4,09.8,0000.0,0022.98,0005.16,0002.18
2022-04-21 07:35:00,,0824.4,5.01,0.00,28.6,27.8,00.0,37.7,30.4,09.9,0000.0,0022.54,0005.18,0002.20
2022-04-21 07:36:00,,0824.3,5.01,0.00,28.6,27.8,00.0,37.7,30.4,09.9,0000.0,0021.83,0005.12,0002.18
2022-04-21 07:37:00,,0824.3,4.99,0.00,28.6,27.8,00.0,37.7,30.3,09.9,0000.0,0021.47,0005.22,0002.18
2022-04-21 07:38:00,,0824.3,4.99,0.00,28.6,27.8,00.0,37.7,30.3,09.9,0000.0,0021.81,0005.31,0002.18
2022-04-21 07:39:00,,0824.3,5.01,0.00,28.6,27.7,00.0,37.7,30.3,09.9,0000.0,0021.85,0005.29,0002.18
2022-04-21 07:40:00,,0824.3,5.00,0.00,28.6,27.7,00.0,37.6,30.3,09.9,0000.0,0021.61,0005.29,0002.20
2022-04-21 07:41:00,,0824.3,5.00,0.00,28.6,27.7,00.0,37.6,30.3,09.9,0000.0,0021.00,0005.33,0002.21
2022-04-21 07:42:00,,0824.3,5.00,0.00,28.6,27.7,00.0,37.6,30.3,09.9,0000.0,0021.28,0005.33,0002.19
2022-04-21 07:43:00,,0824.3,5.01,0.00,28.6,27.7,00.0,37.6,30.3,09.9,0000.0,0022.04,0005.44,0002.18
2022-04-21 07:44:00,,0824.3,5.00,0.00,28.6,27.7,00.0,37.6,30.3,09.9,0000.0,0021.75,0005.39,0002.17
2022-04-21 07:45:00,,0824.3,5.00,0.00,28.6,27.7,00.0,37.6,30.3,09.9,0000.0,0021.63,0005.42,0002.18
2022-04-21 07:46:00,,0824.3,5.00,0.00,28.5,27.7,00.0,37.6,30.3,09.9,0000.0,0022.39,0005.44,0002.19
2022-04-21 07:47:00,,0824.3,5.00,0.00,28.5,27.6,00.0,37.6,30.3,09.9,0000.0,0022.58,0005.45,0002.22
2022-04-21 07:48:00,,0824.3,5.01,0.00,28.5,27.6,00.0,37.6,30.2,10.0,0000.0,0021.79,0005.40,0002.22
2022-04-21 07:49:00,,0824.3,4.99,0.00,28.5,27.6,00.0,37.6,30.2,09.9,0000.0,0021.36,0005.35,0002.21
2022-04-21 07:50:00,,0824.3,4.99,0.00,28.5,27.6,00.0,37.5,30.2,09.9,0000.0,0020.75,0005.38,0002.22
2022-04-21 07:51:00,,0824.3,5.01,0.00,28.5,27.6,00.0,37.5,30.2,09.9,0000.0,0020.38,0005.43,0002.21
2022-04-21 07:52:00,,0824.3,4.99,0.00,28.5,27.6,00.0,37.5,30.2,09.9,0000.0,0020.37,0005.44,0002.20
2022-04-21 07:53:00,,0824.3,4.99,0.00,28.5,27.6,00.0,37.5,30.2,10.0,0000.0,0020.08,0005.44,0002.21
2022-04-21 07:54:00,,0824.3,5.00,0.00,28.5,27.6,00.0,37.5,30.2,10.0,0000.0,0019.80,0005.40,0002.20
2022-04-21 07:55:00,,0824.3,5.00,0.00,28.5,27.6,00.0,37.5,30.2,10.0,0000.0,0020.71,0005.38,0002.19
2022-04-21 07:56:00,,0824.2,5.02,0.00,28.5,27.6,00.0,37.5,30.2,10.0,0000.0,0021.07,0005.37,0002.19
2022-04-21 07:57:00,,0824.2,5.00,0.00,28.4,27.6,00.0,37.5,30.2,10.0,0000.0,0020.38,0005.42,0002.17
2022-04-21 07:58:00,,0824.2,5.00,0.00,28.4,27.6,00.0,37.5,30.2,10.0,0000.0,0020.41,0005.45,0002.16
2022-04-21 07:59:00,,0824.2,4.99,0.00,28.4,27.6,00.0,37.5,30.2,10.0,0000.0,0020.93,0005.49,0002.15
